Home > Weather > Apolda > Past weeks

Flag for Germany Weather for the Past 2 Weeks in Apolda, Thuringia, Germany

Now
59 °F

Passing clouds.


Feels Like: 57 °F
Forecast: 45 / 71 °F
Wind: 10 mph from East

Location: Erfurt-Bindersleben

Current Time: May 5, 2016 at 8:16:52 PM

Latest Report: May 5, 2016 at 7:50 PM


Visibility: N/A

Pressure: 30.18 "Hg

Humidity: 63%

Dew Point: 46 °F

Location of ApoldaLocation

Historic Weather in Apolda — Graph

°F

Apolda Temperature Yesterday

Maximum temperature yesterday: 55 °F (at 3:20 PM)
Minimum temperature yesterday: 32 °F (at 6:20 AM)
Average temperature yesterday: 46 °F

High & Low Weather Summary for the Past Weeks

 TemperatureHumidityPressure
High63 °F (May 2, 3:20 PM)100% (Apr 25, 2:20 AM)30.39 "Hg (Apr 25, 2:20 AM)
Low28 °F (Apr 24, 4:50 AM)41% (Apr 21, 8:20 PM)29.47 "Hg (Apr 26, 1:50 AM)
Average45 °F69%30.01 "Hg
* Reported Apr 20 7:20 PM — May 5 7:20 PM, Apolda, Weather by CustomWeather, © 2016

Note: Actual official high and low records may vary slightly from our data, if they occured in-between our weather recording intervals... More about our weather records

Advertising

Apolda Weather History for the Previous 24 Hours

Scroll right to see more
 ConditionsComfort  
Time TempWeatherWind HumidityBarometerVisibility
7:20 PM
Thu, May 5
61 °FPassing clouds.10 mph59%30.18 "HgN/A
6:50 PM63 °FPassing clouds.12 mph52%30.21 "HgN/A
6:20 PM63 °FPassing clouds.10 mph52%30.21 "HgN/A
5:50 PM63 °FPassing clouds.12 mph49%30.21 "HgN/A
5:20 PM63 °FPassing clouds.10 mph49%30.21 "HgN/A
4:50 PM63 °FScattered clouds.10 mph49%30.24 "HgN/A
4:20 PM63 °FPassing clouds.12 mph49%30.24 "HgN/A
3:50 PM63 °FPassing clouds.9 mph45%30.24 "HgN/A
3:20 PM63 °FPassing clouds.12 mph45%30.27 "HgN/A
2:50 PM61 °FPassing clouds.10 mph45%30.27 "HgN/A
2:20 PM61 °FPassing clouds.10 mph48%30.30 "HgN/A
1:50 PM61 °FPassing clouds.10 mph48%30.30 "HgN/A
1:20 PM59 °FPassing clouds.13 mph51%30.30 "HgN/A
12:50 PM59 °FPassing clouds.12 mph48%30.30 "HgN/A
12:20 PM57 °FPassing clouds.12 mph51%30.33 "HgN/A
11:50 AM57 °FPassing clouds.10 mph51%30.33 "HgN/A
11:20 AM55 °FPassing clouds.10 mph55%30.33 "HgN/A
10:50 AM55 °FPassing clouds.10 mph59%30.33 "HgN/A
10:20 AM54 °FPassing clouds.7 mph63%30.36 "HgN/A
9:50 AM52 °FPassing clouds.7 mph67%30.36 "HgN/A
9:20 AM50 °FPassing clouds.5 mph67%30.36 "HgN/A
8:50 AM48 °FPassing clouds.5 mph66%30.36 "HgN/A
8:20 AM46 °FPassing clouds.3 mph71%30.36 "HgN/A
7:50 AM45 °FSunny.No wind76%30.36 "Hg10 mi
7:20 AM43 °FSunny.1 mph81%30.36 "Hg10 mi
6:50 AM41 °FPassing clouds.3 mph87%30.36 "HgN/A
6:20 AM41 °FClear.2 mph87%30.36 "Hg10 mi
5:50 AM41 °FClear.2 mph81%30.36 "Hg10 mi
5:20 AM43 °FClear.No wind81%30.36 "Hg10 mi
4:50 AM41 °FClear.No wind81%30.36 "Hg10 mi
4:20 AM43 °FClear.No wind71%30.36 "Hg10 mi
3:50 AM43 °FClear.No wind71%30.36 "Hg10 mi
3:20 AM43 °FClear.1 mph71%30.36 "Hg10 mi
2:50 AM43 °FClear.3 mph71%30.36 "Hg10 mi
2:20 AM43 °FClear.6 mph71%30.36 "Hg10 mi
1:50 AM45 °FClear.6 mph71%30.36 "Hg10 mi
1:20 AM45 °FClear.6 mph66%30.36 "Hg10 mi
12:50 AM45 °FClear.6 mph61%30.39 "Hg10 mi
12:20 AM43 °FClear.7 mph71%30.39 "Hg10 mi
11:50 PM
Wed, May 4
46 °FClear.No wind53%30.39 "Hg10 mi
11:20 PM46 °FClear.2 mph53%30.39 "Hg10 mi
10:50 PM46 °FClear.3 mph53%30.39 "Hg10 mi
10:20 PM48 °FPassing clouds.3 mph50%30.36 "HgN/A
9:50 PM48 °FClear.3 mph54%30.36 "Hg10 mi
9:20 PM48 °FSunny.5 mph54%30.36 "Hg10 mi
8:50 PM48 °FSunny.5 mph54%30.36 "Hg10 mi
8:20 PM50 °FSunny.6 mph50%30.36 "Hg10 mi
Weather by CustomWeather, © 2016

See weather overviewHow to use our weather pages